Hourly Data Report for October 27, 2016

All times are specified in Local Standard Time (LST). Add 1 hour to adjust for Daylight Saving Time where and when it is observed.

KUGAARUK CLIMATE
NUNAVUT

68°32'15.060" N
89°47'47.020" W
15.80 m
2303094
71407
NBB

Download Data

Hourly Data (October 2016)
Hourly Data Report for October 27, 2016
Temp Definition
°C
Dew Point Temp Definition
°C
Rel Hum Definition
%
Wind Dir Definition
10's deg

Wind Spd Definition
km/h
Visibility Definition
km
Stn Press Definition
kPa
Hmdx Definition


Wind Chill Definition


Weather Definition


TIME
00:00 -12.3 -15.4 78 36 13   101.29   -19 LegendNANA
01:00 -11.7 -14.5 79 30 20   101.30   -20 LegendNANA
02:00 -12.9 -15.8 79 31 23   101.34   -22 LegendNANA
03:00 -13.9 -16.8 79 30 24   101.35   -24 LegendNANA
04:00 -14.9 -17.9 78 30 23   101.34   -25 LegendNANA
05:00 -15.8 -18.7 78 28 23   101.32   -26 LegendNANA
06:00 -16.6 -19.1 81 28 24   101.32   -27 LegendNANA
07:00 -16.0 -18.0 85 26 22   101.31   -26 LegendNANA
08:00 -14.5 -17.2 80 31 23   101.29   -24 LegendNANA
09:00 -15.0 -17.6 81 29 20   101.29   -24 LegendNANA
10:00 -14.6 -17.0 82 29 23   101.29   -24 LegendNANA
11:00 -14.0 -16.9 78 30 30   101.30   -25 LegendNANA
12:00 -13.9 -16.1 84 31 32   101.31   -25 LegendNANA
13:00 -14.0 -16.7 80 30 29   101.36   -25 LegendNANA
14:00 -14.0 -16.8 80 29 25   101.35   -24 LegendNANA
15:00 -13.9 -16.5 80 30 27   101.36   -24 LegendNANA
16:00 -13.8 -16.1 82 29 29   101.35   -24 LegendNANA
17:00 -13.7 -16.4 80 31 31   101.35   -25 LegendNANA
18:00 -14.0 -16.5 81 30 28   101.37   -24 LegendNANA
19:00 -14.7 -17.2 81 29 26   101.37   -25 LegendNANA
20:00 -14.3 -17.0 80 31 26   101.33   -24 LegendNANA
21:00 -14.4 -17.3 79 31 27   101.30   -25 LegendNANA
22:00 -14.3 -16.7 82 31 22   101.28   -24 LegendNANA
23:00 -14.4 -16.8 82 31 23   101.29   -24 LegendNANA

Notes on Data Quality.

Legend

  • E = Estimated
  • M = Missing
  • NA = Not Available
  • ‡ = Partner data that is not subject to review by the National Climate Archives
Date modified: